Portada
METAR-TAF:

METAR-TAF

Aeroports :

Kingaroy, Austràlia

latitud: 26-34-48S, longitud: 151-50-30E, altitud: 455 m

Observació

L'informe es va fer fa 26 minuts, a les 08:00 UTC
Vent 10 kt del Est
Temperatura 21°C
Humitat 64%
Pressió 1017 hPa
Visibilitat 10 km o més
Cel ennuvolat a una alçada de 3100 ft
Cel ennuvolat a una alçada de 4100 ft
Cel cobert a una alçada de 6600 ft

METAR: YKRY 180800Z AUTO 09010KT 9999 // BKN031 BKN041 OVC066 21/14 Q1017

Hora: 18:26 (08:26 UTC)


TAF: manca

Observacions i pronòstics meteorològics de més de 4000 aeroports (METAR i TAF).

Les estacions disponibles són els punts grocs i vermells al mapa.

Posi el ratolí al punt desitjat per veure el nom de l'estació.

Feu clic per veure les observacions i els pronòstics meteorològics.

Per canviar el mapa: feu clic els botons verds amb una creu de color negre per apropar; al botó verd amb un guió per allunyar la imatge; o en les fletxes verdes per a mapes adjacents.


METAR-TAF: